Powrót do katalogu

FENGYUN 1C DEB

AktywnyPO
NORAD 32110·DEBRIS·🇨🇳 China

Wystrzelony May 10, 1999 z Taiyuan Satellite Launch Center

Loading…

Następne Przeloty (najbliższe 24 godziny)

TLE

ŚwieżeSource: Space-Track

Epoka: Sep 14, 2026, 07:13 UTC

1 32110U 99025CRC 26257.30118104  .00001863  00000-0  72836-3 0  9999
2 32110  99.5461  97.9645 0032356 303.1558 234.6077 14.30687181683260

Śledź FENGYUN 1C DEB w czasie rzeczywistym z AllMySat

Download on the App Store